www.cux-wetter.de
Wetterdaten: Montag, 13.04.2015
Datum Zeit Temp. A. Feuchte A. Luftdruck Regen Wind Richtung Richtung Sonnenschein Solar Taupunkt Windchill Windben
13.04.2015 00:00 11,6 C 95 % 1015,5 hPa 0,0 l/m 55,5 km/h (7 Bft) NW 315 0 min 0 W/m 10,8 C -0,3 C 55,5 km/h (7 Bft)
13.04.2015 00:15 11,6 C 95 % 1015,5 hPa 0,0 l/m 52,5 km/h (7 Bft) NW 315 0 min 0 W/m 10,8 C -0,1 C 52,5 km/h (7 Bft)
13.04.2015 00:30 11,6 C 95 % 1015,5 hPa 0,0 l/m 52,2 km/h (7 Bft) NW 315 0 min 0 W/m 10,8 C -0,1 C 52,2 km/h (7 Bft)
13.04.2015 00:45 11,6 C 95 % 1016,5 hPa 0,0 l/m 61,5 km/h (7 Bft) NW 315 0 min 0 W/m 10,8 C -0,7 C 61,5 km/h (7 Bft)
13.04.2015 01:00 11,6 C 95 % 1016,5 hPa 0,0 l/m 56,7 km/h (7 Bft) NW 320 0 min 0 W/m 10,8 C -0,4 C 56,7 km/h (7 Bft)
13.04.2015 01:15 11,6 C 95 % 1016,5 hPa 0,3 l/m 58,8 km/h (7 Bft) N-NW 330 0 min 0 W/m 10,8 C -0,5 C 58,8 km/h (7 Bft)
13.04.2015 01:30 11,6 C 95 % 1017,5 hPa 0,0 l/m 51,5 km/h (7 Bft) NW 320 0 min 0 W/m 10,8 C 0,0 C 51,5 km/h (7 Bft)
13.04.2015 01:44 11,6 C 95 % 1018,5 hPa 0,0 l/m 41,9 km/h (6 Bft) N-NW 330 0 min 0 W/m 10,8 C 1,0 C 41,9 km/h (6 Bft)
13.04.2015 02:00 11,6 C 95 % 1018,5 hPa 0,0 l/m 46,6 km/h (6 Bft) N-NW 335 0 min 0 W/m 10,8 C 0,5 C 46,6 km/h (6 Bft)
13.04.2015 02:15 11,6 C 95 % 1019,5 hPa 0,0 l/m 47,9 km/h (6 Bft) NW 315 0 min 0 W/m 10,8 C 0,3 C 47,9 km/h (6 Bft)
13.04.2015 02:30 11,6 C 95 % 1019,5 hPa 0,0 l/m 44,7 km/h (6 Bft) NW 315 0 min 0 W/m 10,8 C 0,7 C 44,7 km/h (6 Bft)
13.04.2015 02:45 11,6 C 95 % 1019,5 hPa 0,0 l/m 43,2 km/h (6 Bft) N-NW 340 0 min 0 W/m 10,8 C 0,9 C 43,2 km/h (6 Bft)
13.04.2015 03:00 11,6 C 95 % 1019,5 hPa 0,0 l/m 41,6 km/h (6 Bft) N-NW 335 0 min 0 W/m 10,8 C 1,1 C 41,6 km/h (6 Bft)
13.04.2015 03:15 11,6 C 95 % 1020,5 hPa 0,0 l/m 34,6 km/h (5 Bft) N-NW 345 0 min 0 W/m 10,8 C 2,1 C 34,6 km/h (5 Bft)
13.04.2015 03:29 11,6 C 95 % 1020,5 hPa 0,0 l/m 37,2 km/h (5 Bft) N-NW 330 0 min 0 W/m 10,8 C 1,7 C 37,2 km/h (5 Bft)
13.04.2015 03:45 11,6 C 95 % 1020,5 hPa 0,0 l/m 35,1 km/h (5 Bft) N-NW 335 0 min 0 W/m 10,8 C 2,0 C 35,1 km/h (5 Bft)
13.04.2015 04:00 11,6 C 95 % 1020,5 hPa 0,0 l/m 39,3 km/h (6 Bft) N-NW 340 0 min 0 W/m 10,8 C 1,4 C 39,3 km/h (6 Bft)
13.04.2015 04:15 11,6 C 95 % 1021,5 hPa 0,0 l/m 37,8 km/h (5 Bft) N-NW 345 0 min 0 W/m 10,8 C 1,6 C 37,8 km/h (5 Bft)
13.04.2015 04:30 11,6 C 95 % 1021,5 hPa 0,0 l/m 30,1 km/h (5 Bft) N-NW 335 0 min 0 W/m 10,8 C 2,9 C 30,1 km/h (5 Bft)
13.04.2015 04:45 11,6 C 95 % 1021,5 hPa 0,0 l/m 27,3 km/h (5 Bft) N-NW 340 0 min 0 W/m 10,8 C 3,5 C 27,3 km/h (5 Bft)
13.04.2015 05:00 11,6 C 95 % 1021,5 hPa 0,0 l/m 33,2 km/h (5 Bft) NW 325 0 min 0 W/m 10,8 C 2,3 C 33,2 km/h (5 Bft)
13.04.2015 05:14 11,6 C 95 % 1022,5 hPa 0,0 l/m 31,5 km/h (5 Bft) N-NW 335 0 min 0 W/m 10,8 C 2,6 C 31,5 km/h (5 Bft)
13.04.2015 05:30 11,6 C 95 % 1022,5 hPa 0,0 l/m 34,5 km/h (5 Bft) N-NW 335 0 min 0 W/m 10,8 C 2,1 C 34,5 km/h (5 Bft)
13.04.2015 05:45 11,6 C 95 % 1022,5 hPa 0,0 l/m 32,2 km/h (5 Bft) N-NW 340 0 min 0 W/m 10,8 C 2,5 C 32,2 km/h (5 Bft)
13.04.2015 05:59 11,6 C 95 % 1022,5 hPa 0,0 l/m 34,9 km/h (5 Bft) N-NW 335 0 min 0 W/m 10,8 C 2,0 C 34,9 km/h (5 Bft)
13.04.2015 06:15 11,6 C 95 % 1022,5 hPa 0,0 l/m 33,2 km/h (5 Bft) N-NW 340 0 min 0 W/m 10,8 C 2,3 C 33,2 km/h (5 Bft)
13.04.2015 06:30 11,6 C 95 % 1023,5 hPa 0,0 l/m 36,4 km/h (5 Bft) N-NW 335 0 min 0 W/m 10,8 C 1,8 C 36,4 km/h (5 Bft)
13.04.2015 06:45 11,6 C 95 % 1023,5 hPa 0,0 l/m 33,1 km/h (5 Bft) N-NW 335 0 min 0 W/m 10,8 C 2,3 C 33,1 km/h (5 Bft)
13.04.2015 07:00 11,6 C 95 % 1023,5 hPa 0,0 l/m 35,0 km/h (5 Bft) N-NW 340 0 min 0 W/m 10,8 C 2,0 C 35,0 km/h (5 Bft)
13.04.2015 07:15 11,6 C 95 % 1023,5 hPa 0,0 l/m 35,5 km/h (5 Bft) N-NW 340 0 min 0 W/m 10,8 C 1,9 C 35,5 km/h (5 Bft)
13.04.2015 07:29 11,6 C 95 % 1024,5 hPa 0,0 l/m 35,0 km/h (5 Bft) N-NW 340 0 min 0 W/m 10,8 C 2,0 C 35,0 km/h (5 Bft)
13.04.2015 07:45 11,6 C 95 % 1024,5 hPa 0,0 l/m 36,5 km/h (5 Bft) N-NW 335 0 min 0 W/m 10,8 C 1,8 C 36,5 km/h (5 Bft)
13.04.2015 08:00 11,6 C 95 % 1024,5 hPa 0,0 l/m 35,9 km/h (5 Bft) N-NW 335 0 min 0 W/m 10,8 C 1,9 C 35,9 km/h (5 Bft)
13.04.2015 08:15 11,6 C 95 % 1024,5 hPa 0,0 l/m 36,0 km/h (5 Bft) N-NW 330 0 min 0 W/m 10,8 C 1,8 C 36,0 km/h (5 Bft)
13.04.2015 08:29 11,6 C 95 % 1024,5 hPa 0,0 l/m 34,1 km/h (5 Bft) N-NW 330 0 min 0 W/m 10,8 C 2,2 C 34,1 km/h (5 Bft)
13.04.2015 08:45 11,6 C 95 % 1025,5 hPa 0,0 l/m 36,4 km/h (5 Bft) N-NW 335 0 min 0 W/m 10,8 C 1,8 C 36,4 km/h (5 Bft)
13.04.2015 09:00 11,6 C 95 % 1025,5 hPa 0,0 l/m 37,6 km/h (5 Bft) NW 325 0 min 0 W/m 10,8 C 1,6 C 37,6 km/h (5 Bft)
13.04.2015 09:15 11,6 C 95 % 1025,5 hPa 0,0 l/m 36,2 km/h (5 Bft) N-NW 335 0 min 0 W/m 10,8 C 1,8 C 36,2 km/h (5 Bft)
13.04.2015 09:30 11,6 C 95 % 1025,5 hPa 0,0 l/m 31,5 km/h (5 Bft) N-NW 340 0 min 0 W/m 10,8 C 2,6 C 31,5 km/h (5 Bft)
13.04.2015 09:45 11,6 C 95 % 1025,5 hPa 0,0 l/m 39,8 km/h (6 Bft) N-NW 335 0 min 0 W/m 10,8 C 1,3 C 39,8 km/h (6 Bft)
13.04.2015 10:00 11,6 C 95 % 1025,5 hPa 0,0 l/m 39,2 km/h (6 Bft) N-NW 330 0 min 0 W/m 10,8 C 1,4 C 39,2 km/h (6 Bft)
13.04.2015 10:14 11,6 C 95 % 1026,5 hPa 0,0 l/m 36,0 km/h (5 Bft) N-NW 335 0 min 0 W/m 10,8 C 1,8 C 36,0 km/h (5 Bft)
13.04.2015 10:30 11,6 C 95 % 1026,5 hPa 0,0 l/m 30,0 km/h (5 Bft) N-NW 330 0 min 0 W/m 10,8 C 2,9 C 30,0 km/h (5 Bft)
13.04.2015 10:45 11,6 C 95 % 1026,5 hPa 0,0 l/m 35,3 km/h (5 Bft) NW 325 0 min 0 W/m 10,8 C 2,0 C 35,3 km/h (5 Bft)
13.04.2015 10:59 11,6 C 95 % 1026,5 hPa 0,0 l/m 34,2 km/h (5 Bft) NW 325 0 min 0 W/m 10,8 C 2,1 C 34,2 km/h (5 Bft)
13.04.2015 11:15 11,6 C 95 % 1026,5 hPa 0,0 l/m 34,6 km/h (5 Bft) N-NW 330 0 min 0 W/m 10,8 C 2,1 C 34,6 km/h (5 Bft)
13.04.2015 11:30 11,6 C 95 % 1027,5 hPa 0,0 l/m 32,9 km/h (5 Bft) NW 325 0 min 0 W/m 10,8 C 2,4 C 32,9 km/h (5 Bft)
13.04.2015 11:45 11,6 C 95 % 1027,5 hPa 0,0 l/m 32,5 km/h (5 Bft) N-NW 330 0 min 0 W/m 10,8 C 2,4 C 32,5 km/h (5 Bft)
13.04.2015 12:00 11,6 C 95 % 1027,5 hPa 0,0 l/m 33,7 km/h (5 Bft) N-NW 335 0 min 0 W/m 10,8 C 2,2 C 33,7 km/h (5 Bft)
13.04.2015 12:15 11,6 C 95 % 1027,5 hPa 0,0 l/m 30,0 km/h (5 Bft) N-NW 330 0 min 0 W/m 10,8 C 2,9 C 30,0 km/h (5 Bft)
13.04.2015 12:30 11,6 C 95 % 1027,5 hPa 0,0 l/m 29,8 km/h (5 Bft) N-NW 335 0 min 0 W/m 10,8 C 2,9 C 29,8 km/h (5 Bft)
13.04.2015 12:44 11,6 C 95 % 1027,5 hPa 0,0 l/m 32,8 km/h (5 Bft) NW 325 0 min 0 W/m 10,8 C 2,4 C 32,8 km/h (5 Bft)
13.04.2015 13:00 11,6 C 95 % 1027,5 hPa 0,0 l/m 34,2 km/h (5 Bft) N-NW 330 0 min 0 W/m 10,8 C 2,1 C 34,2 km/h (5 Bft)
13.04.2015 13:15 11,6 C 95 % 1027,5 hPa 0,0 l/m 31,7 km/h (5 Bft) NW 325 0 min 0 W/m 10,8 C 2,6 C 31,7 km/h (5 Bft)
13.04.2015 13:30 11,6 C 95 % 1027,5 hPa 0,0 l/m 32,1 km/h (5 Bft) N-NW 330 0 min 0 W/m 10,8 C 2,5 C 32,1 km/h (5 Bft)
13.04.2015 13:45 11,6 C 95 % 1027,5 hPa 0,0 l/m 32,8 km/h (5 Bft) N-NW 330 0 min 0 W/m 10,8 C 2,4 C 32,8 km/h (5 Bft)
13.04.2015 14:00 11,6 C 95 % 1027,5 hPa 0,0 l/m 32,1 km/h (5 Bft) N-NW 340 0 min 0 W/m 10,8 C 2,5 C 32,1 km/h (5 Bft)
13.04.2015 14:15 11,6 C 95 % 1028,5 hPa 0,0 l/m 35,4 km/h (5 Bft) N-NW 330 0 min 0 W/m 10,8 C 1,9 C 35,4 km/h (5 Bft)
13.04.2015 14:29 11,6 C 95 % 1028,5 hPa 0,0 l/m 28,8 km/h (5 Bft) N-NW 330 0 min 0 W/m 10,8 C 3,1 C 28,8 km/h (5 Bft)
13.04.2015 14:45 11,6 C 95 % 1028,5 hPa 0,0 l/m 33,2 km/h (5 Bft) N-NW 330 0 min 0 W/m 10,8 C 2,3 C 33,2 km/h (5 Bft)
13.04.2015 15:00 11,6 C 95 % 1028,5 hPa 0,0 l/m 32,9 km/h (5 Bft) NW 325 0 min 0 W/m 10,8 C 2,4 C 32,9 km/h (5 Bft)
13.04.2015 15:14 11,6 C 95 % 1028,5 hPa 0,0 l/m 35,9 km/h (5 Bft) N 350 0 min 0 W/m 10,8 C 1,9 C 35,9 km/h (5 Bft)
13.04.2015 15:30 11,6 C 95 % 1028,5 hPa 0,0 l/m 38,0 km/h (6 Bft) N-NW 335 0 min 0 W/m 10,8 C 1,5 C 38,0 km/h (6 Bft)
13.04.2015 15:45 11,6 C 95 % 1028,5 hPa 0,0 l/m 32,4 km/h (5 Bft) NW 320 0 min 0 W/m 10,8 C 2,5 C 32,4 km/h (5 Bft)
13.04.2015 15:59 11,6 C 95 % 1028,5 hPa 0,0 l/m 32,0 km/h (5 Bft) N-NW 335 0 min 0 W/m 10,8 C 2,5 C 32,0 km/h (5 Bft)
13.04.2015 16:15 11,6 C 95 % 1028,5 hPa 0,0 l/m 29,1 km/h (5 Bft) NW 325 0 min 0 W/m 10,8 C 3,1 C 29,1 km/h (5 Bft)
13.04.2015 16:30 11,6 C 95 % 1028,5 hPa 0,0 l/m 39,0 km/h (6 Bft) N-NW 330 0 min 0 W/m 10,8 C 1,4 C 39,0 km/h (6 Bft)
13.04.2015 16:45 11,6 C 95 % 1028,5 hPa 0,0 l/m 29,6 km/h (5 Bft) N-NW 345 0 min 0 W/m 10,8 C 3,0 C 29,6 km/h (5 Bft)
13.04.2015 17:00 11,6 C 95 % 1028,5 hPa 0,0 l/m 30,2 km/h (5 Bft) N-NW 335 0 min 0 W/m 10,8 C 2,9 C 30,2 km/h (5 Bft)
13.04.2015 17:15 11,6 C 95 % 1028,5 hPa 0,0 l/m 30,7 km/h (5 Bft) N-NW 330 0 min 0 W/m 10,8 C 2,8 C 30,7 km/h (5 Bft)
13.04.2015 17:30 11,6 C 95 % 1028,5 hPa 0,0 l/m 25,7 km/h (4 Bft) N-NW 340 0 min 0 W/m 10,8 C 3,8 C 25,7 km/h (4 Bft)
13.04.2015 17:44 11,6 C 95 % 1028,5 hPa 0,0 l/m 30,7 km/h (5 Bft) N 350 0 min 0 W/m 10,8 C 2,8 C 30,7 km/h (5 Bft)
13.04.2015 18:00 11,6 C 95 % 1028,5 hPa 0,0 l/m 27,3 km/h (5 Bft) N-NW 335 0 min 0 W/m 10,8 C 3,5 C 27,3 km/h (5 Bft)
13.04.2015 18:15 11,6 C 95 % 1028,5 hPa 0,0 l/m 26,0 km/h (4 Bft) N-NW 340 0 min 0 W/m 10,8 C 3,8 C 26,0 km/h (4 Bft)
13.04.2015 18:30 11,6 C 95 % 1028,5 hPa 0,0 l/m 21,8 km/h (4 Bft) N-NW 335 0 min 0 W/m 10,8 C 4,8 C 21,8 km/h (4 Bft)
13.04.2015 18:45 11,6 C 95 % 1028,5 hPa 0,0 l/m 22,5 km/h (4 Bft) N-NW 335 0 min 0 W/m 10,8 C 4,6 C 22,5 km/h (4 Bft)
13.04.2015 19:00 11,6 C 95 % 1028,5 hPa 0,0 l/m 21,1 km/h (4 Bft) N-NW 340 0 min 0 W/m 10,8 C 5,0 C 21,1 km/h (4 Bft)
13.04.2015 19:15 11,6 C 95 % 1028,5 hPa 0,0 l/m 25,8 km/h (4 Bft) NW 325 0 min 0 W/m 10,8 C 3,8 C 25,8 km/h (4 Bft)
13.04.2015 19:29 11,6 C 95 % 1028,5 hPa 0,0 l/m 17,0 km/h (3 Bft) N 350 0 min 0 W/m 10,8 C 6,3 C 17,0 km/h (3 Bft)
13.04.2015 19:45 11,6 C 95 % 1028,5 hPa 0,0 l/m 19,3 km/h (3 Bft) N-NW 340 0 min 0 W/m 10,8 C 5,6 C 19,3 km/h (3 Bft)
13.04.2015 20:00 11,6 C 95 % 1028,5 hPa 0,0 l/m 20,3 km/h (4 Bft) NW 320 0 min 0 W/m 10,8 C 5,3 C 20,3 km/h (4 Bft)
13.04.2015 20:14 11,6 C 95 % 1028,5 hPa 0,0 l/m 15,5 km/h (3 Bft) N-NW 345 0 min 0 W/m 10,8 C 6,9 C 15,5 km/h (3 Bft)
13.04.2015 20:30 11,6 C 95 % 1028,5 hPa 0,0 l/m 16,3 km/h (3 Bft) N-NW 330 0 min 0 W/m 10,8 C 6,6 C 16,3 km/h (3 Bft)
13.04.2015 20:45 11,6 C 95 % 1028,5 hPa 0,0 l/m 11,6 km/h (2 Bft) NW 325 0 min 0 W/m 10,8 C 8,5 C 11,6 km/h (2 Bft)
13.04.2015 20:59 11,6 C 95 % 1028,5 hPa 0,0 l/m 14,3 km/h (3 Bft) N-NW 335 0 min 0 W/m 10,8 C 7,4 C 14,3 km/h (3 Bft)
13.04.2015 21:15 11,6 C 95 % 1028,5 hPa 0,0 l/m 15,3 km/h (3 Bft) NW 325 0 min 0 W/m 10,8 C 7,0 C 15,3 km/h (3 Bft)
13.04.2015 21:30 11,6 C 95 % 1028,5 hPa 0,0 l/m 12,0 km/h (2 Bft) N-NW 330 0 min 0 W/m 10,8 C 8,4 C 12,0 km/h (2 Bft)
13.04.2015 21:44 11,6 C 95 % 1028,5 hPa 0,0 l/m 15,7 km/h (3 Bft) NW 325 0 min 0 W/m 10,8 C 6,8 C 15,7 km/h (3 Bft)
13.04.2015 22:00 11,6 C 95 % 1028,5 hPa 0,0 l/m 15,1 km/h (3 Bft) NW 320 0 min 0 W/m 10,8 C 7,0 C 15,1 km/h (3 Bft)
13.04.2015 22:15 11,6 C 95 % 1028,5 hPa 0,0 l/m 10,8 km/h (2 Bft) NW 310 0 min 0 W/m 10,8 C 8,9 C 10,8 km/h (2 Bft)
13.04.2015 22:30 11,6 C 95 % 1028,5 hPa 0,0 l/m 13,3 km/h (3 Bft) NW 320 0 min 0 W/m 10,8 C 7,8 C 13,3 km/h (3 Bft)
13.04.2015 22:45 11,6 C 95 % 1028,5 hPa 0,0 l/m 15,0 km/h (3 Bft) NW 325 0 min 0 W/m 10,8 C 7,1 C 15,0 km/h (3 Bft)
13.04.2015 23:00 11,6 C 95 % 1028,5 hPa 0,0 l/m 12,5 km/h (2 Bft) N-NW 335 0 min 0 W/m 10,8 C 8,1 C 12,5 km/h (2 Bft)
13.04.2015 23:15 11,6 C 95 % 1028,5 hPa 0,0 l/m 13,5 km/h (3 Bft) NW 320 0 min 0 W/m 10,8 C 7,7 C 13,5 km/h (3 Bft)
13.04.2015 23:29 11,6 C 95 % 1027,5 hPa 0,0 l/m 11,6 km/h (2 Bft) NW 320 0 min 0 W/m 10,8 C 8,5 C 11,6 km/h (2 Bft)
13.04.2015 23:45 11,6 C 95 % 1027,5 hPa 0,0 l/m 9,1 km/h (2 Bft) NW 305 0 min 0 W/m 10,8 C 9,9 C 9,1 km/h (2 Bft)
_ Min-Zeit 00:00 00:00 00:00 - 23:45 - - - - 00:00 00:45 23:45
Minimum _ 11,6 C 95 % 1015,5 hPa - 9,1 km/h (2 Bft) - - - - 10,8 C -0,7 C 9,1 km/h (2 Bft)
_ Max-Zeit 00:00 00:00 14:15 01:15 00:45 - - 00:00 00:00 00:00 23:45 00:45
Maximum _ 11,6 C 95 % 1028,5 hPa 0,3 l/m 61,5 km/h
NW (7 Bft)
- - 0 min 0 W/m 10,8 C 9,9 C 61,5 km/h
NW (7 Bft)
Durchschnitt _ 11,6 C 95 % 1025,3 hPa #0,3 l/m 31,5 km/h (5 Bft) N-NW - #0 min. 0 W/m 10,8 C 3,1 C 31,5 km/h (5 Bft)
copyright by Holger Just